TimePDT,TemperatureF,Dew PointF,Humidity,Sea Level PressureIn,VisibilityMPH,Wind Direction,Wind SpeedMPH,Gust SpeedMPH,PrecipitationIn,Events,Conditions,WindDirDegrees,DateUTC
12:56 AM,70.0,42.1,36,29.91,10.0,SW,9.2,-,N/A,,Clear,230,2013-08-10 07:56:00
1:56 AM,69.1,43.0,39,29.91,10.0,WSW,10.4,-,N/A,,Clear,250,2013-08-10 08:56:00
2:56 AM,68.0,43.0,40,29.91,10.0,West,13.8,-,N/A,,Clear,260,2013-08-10 09:56:00
3:56 AM,68.0,42.1,39,29.91,10.0,West,15.0,-,N/A,,Clear,260,2013-08-10 10:56:00
4:56 AM,66.9,43.0,42,29.92,10.0,West,13.8,-,N/A,,Clear,270,2013-08-10 11:56:00
5:56 AM,64.9,44.1,47,29.94,10.0,West,9.2,-,N/A,,Clear,260,2013-08-10 12:56:00
6:56 AM,66.9,44.1,44,29.96,10.0,WSW,5.8,-,N/A,,Clear,250,2013-08-10 13:56:00
7:56 AM,73.0,43.0,34,29.96,10.0,WSW,8.1,-,N/A,,Clear,250,2013-08-10 14:56:00
8:56 AM,78.1,41.0,27,29.96,10.0,West,8.1,-,N/A,,Clear,270,2013-08-10 15:56:00
9:56 AM,81.0,39.0,22,29.97,10.0,West,6.9,-,N/A,,Clear,260,2013-08-10 16:56:00
10:56 AM,82.9,37.9,20,29.96,10.0,SW,3.5,-,N/A,,Clear,220,2013-08-10 17:56:00
11:56 AM,86.0,37.9,18,29.95,10.0,SSW,3.5,-,N/A,,Clear,210,2013-08-10 18:56:00
12:56 PM,88.0,37.0,16,29.93,10.0,Variable,6.9,-,N/A,,Clear,0,2013-08-10 19:56:00
1:56 PM,90.0,37.0,15,29.92,10.0,SSW,10.4,16.1,N/A,,Clear,210,2013-08-10 20:56:00
2:56 PM,91.9,39.9,16,29.91,10.0,WSW,18.4,23.0,N/A,,Clear,250,2013-08-10 21:56:00
3:56 PM,91.0,43.0,19,29.90,10.0,WSW,17.3,-,N/A,,Clear,240,2013-08-10 22:56:00
4:56 PM,88.0,42.1,20,29.90,10.0,WSW,17.3,-,N/A,,Clear,240,2013-08-10 23:56:00
5:56 PM,87.1,43.0,21,29.91,10.0,WSW,17.3,-,N/A,,Clear,240,2013-08-11 00:56:00
6:56 PM,82.0,45.0,27,29.91,10.0,WSW,20.7,-,N/A,,Clear,240,2013-08-11 01:56:00
7:56 PM,77.0,45.0,32,29.93,10.0,WSW,15.0,-,N/A,,Clear,240,2013-08-11 02:56:00
8:56 PM,75.0,42.1,31,29.93,10.0,WSW,15.0,-,N/A,,Clear,250,2013-08-11 03:56:00
9:56 PM,73.0,42.1,33,29.94,10.0,WSW,11.5,-,N/A,,Clear,250,2013-08-11 04:56:00
10:56 PM,73.0,43.0,34,29.93,10.0,West,11.5,-,N/A,,Clear,260,2013-08-11 05:56:00
11:56 PM,73.0,43.0,34,29.93,10.0,West,16.1,-,N/A,,Clear,260,2013-08-11 06:56:00